EW2575 Weather Reports


Display with metric or nautical units.
time (UTC)temp
F
wind
direction
speed
MPH
gust
MPH
rain 1hr
in
rain 24hr
in
rain mn
in
humidity
%
barometer
mb
20260507191037 60 254 4.0 8.0 0.00 0.03 0.02 88 1013.6
20260507190534 60 265 4.0 8.0 0.00 0.03 0.02 87 1013.6
20260507190038 60 255 5.0 8.0 0.00 0.03 0.02 88 1013.6
20260507185534 60 252 5.0 10.0 0.00 0.03 0.02 88 1013.6
20260507185036 60 237 7.0 10.0 0.00 0.03 0.02 87 1013.6
20260507184534 60 225 5.0 11.0 0.00 0.03 0.02 87 1013.5
20260507184033 60 262 5.0 10.0 0.00 0.03 0.02 87 1013.5
20260507183537 60 238 7.0 10.0 0.00 0.03 0.02 87 1013.4
20260507183038 60 237 5.0 9.0 0.00 0.03 0.02 87 1013.4
20260507182534 60 255 5.0 9.0 0.00 0.03 0.02 87 1013.3
20260507182034 60 242 6.0 9.0 0.00 0.03 0.02 87 1013.3
20260507181535 60 225 6.0 9.0 0.00 0.03 0.02 87 1013.3
20260507181033 60 247 7.0 9.0 0.00 0.03 0.02 87 1013.4
20260507180535 60 269 5.0 10.0 0.00 0.03 0.02 87 1013.3
20260507180131 60 257 6.0 11.0 0.00 0.03 0.02 87 1013.2
20260507175533 60 236 7.0 11.0 0.00 0.03 0.02 87 1013.2
20260507175031 60 269 6.0 13.0 0.00 0.03 0.02 86 1013.2
20260507174530 61 279 7.0 15.0 0.00 0.03 0.02 86 1013.2
20260507174031 61 272 9.0 13.0 0.00 0.03 0.02 86 1013.1
20260507173529 61 284 7.0 14.0 0.00 0.03 0.02 85 1013.1
20260507173029 62 266 8.0 16.0 0.00 0.03 0.02 85 1012.9
20260507172530 62 262 7.0 16.0 0.00 0.03 0.02 85 1013.1
20260507172031 62 261 9.0 15.0 0.00 0.03 0.02 84 1013.1
20260507171529 62 254 7.0 14.0 0.00 0.03 0.02 83 1013.1
20260507171029 63 266 10.0 15.0 0.00 0.03 0.02 82 1013.0
20260507170531 63 238 9.0 15.0 0.00 0.03 0.02 84 1012.9
20260507170029 62 202 10.0 18.0 0.00 0.03 0.02 84 1013.0
20260507165528 63 267 11.0 18.0 0.00 0.03 0.02 83 1013.0
20260507165028 63 263 11.0 15.0 0.00 0.03 0.02 82 1012.8
20260507164528 63 253 7.0 16.0 0.00 0.03 0.02 82 1012.9
20260507164028 63 246 10.0 16.0 0.00 0.03 0.02 82 1012.9
20260507163531 63 270 8.0 12.0 0.00 0.03 0.02 83 1012.9
20260507163029 63 266 7.0 15.0 0.00 0.03 0.02 83 1013.0
20260507162526 63 279 8.0 16.0 0.00 0.03 0.02 83 1013.1
20260507162030 63 263 8.0 16.0 0.00 0.03 0.02 83 1013.3
20260507161530 63 279 6.0 15.0 0.00 0.03 0.02 84 1013.2
20260507161025 63 276 7.0 15.0 0.00 0.03 0.02 84 1013.2
20260507160525 63 263 9.0 15.0 0.00 0.03 0.02 85 1013.3
20260507160024 62 269 9.0 15.0 0.00 0.03 0.02 85 1013.4
20260507155524 62 230 8.0 13.0 0.00 0.05 0.02 85 1013.5
20260507155026 63 271 8.0 13.0 0.00 0.05 0.02 86 1013.5
20260507154528 62 265 6.0 13.0 0.00 0.05 0.02 86 1013.7
20260507154024 62 263 10.0 15.0 0.00 0.05 0.02 86 1013.7
20260507153523 62 232 8.0 15.0 0.00 0.05 0.02 86 1013.8
20260507153024 62 267 9.0 13.0 0.00 0.05 0.02 85 1013.9
20260507152526 62 265 7.0 11.0 0.00 0.05 0.02 86 1013.9
20260507152023 62 248 5.0 11.0 0.00 0.05 0.02 85 1014.0
20260507151525 62 242 6.0 11.0 0.00 0.05 0.02 86 1014.1
20260507151022 62 323 4.0 10.0 0.00 0.05 0.02 87 1014.1
20260507150521 62 270 6.0 14.0 0.00 0.05 0.02 87 1014.2
20260507150021 61 243 8.0 14.0 0.00 0.05 0.02 87 1014.2
20260507145520 61 246 7.0 10.0 0.00 0.09 0.02 87 1014.2
20260507145021 61 239 4.0 9.0 0.00 0.09 0.02 87 1014.3
20260507144527 61 261 4.0 11.0 0.00 0.09 0.02 87 1014.4
20260507144020 61 264 6.0 12.0 0.00 0.09 0.02 87 1014.5
20260507143520 61 279 6.0 12.0 0.00 0.09 0.02 87 1014.6
20260507143021 61 274 5.0 10.0 0.00 0.09 0.02 87 1014.5
20260507142521 61 290 6.0 10.0 0.00 0.09 0.02 88 1014.6
20260507142021 61 286 6.0 10.0 0.00 0.09 0.02 88 1014.6
20260507141521 61 303 3.0 11.0 0.00 0.09 0.02 89 1014.6
20260507141019 61 260 6.0 12.0 0.00 0.09 0.02 89 1014.6
20260507140523 60 264 6.0 13.0 0.00 0.09 0.02 89 1014.5
20260507140019 60 250 7.0 13.0 0.00 0.09 0.02 89 1014.6
20260507135524 60 279 7.0 13.0 0.00 0.09 0.02 89 1014.6
20260507135021 60 271 9.0 13.0 0.00 0.09 0.02 89 1014.8
20260507134518 60 272 9.0 13.0 0.00 0.09 0.02 89 1014.8
20260507134017 60 263 6.0 13.0 0.00 0.09 0.02 89 1014.8
20260507133521 61 254 9.0 16.0 0.00 0.09 0.02 89 1014.9
20260507133018 61 240 9.0 16.0 0.00 0.09 0.02 89 1014.9
20260507132522 61 266 11.0 17.0 0.00 0.09 0.02 89 1014.9
20260507132017 61 270 12.0 17.0 0.00 0.09 0.02 89 1014.8
20260507131524 61 260 10.0 16.0 0.00 0.09 0.02 89 1015.0
20260507131019 62 282 9.0 18.0 0.00 0.09 0.02 88 1015.0
20260507130516 62 265 12.0 18.0 0.00 0.09 0.02 87 1015.0
20260507130016 63 271 6.0 14.0 0.00 0.09 0.02 87 1015.0
20260507125519 63 294 9.0 15.0 0.00 0.09 0.02 86 1015.0
20260507125013 63 254 7.0 16.0 0.00 0.09 0.02 87 1014.9
20260507124514 63 255 6.0 16.0 0.00 0.09 0.02 86 1014.9
20260507124013 63 266 6.0 14.0 0.00 0.09 0.02 87 1014.9
20260507123513 63 255 10.0 14.0 0.00 0.09 0.02 88 1014.9
20260507123013 62 264 9.0 13.0 0.00 0.09 0.02 87 1015.0
20260507122511 62 268 7.0 12.0 0.00 0.09 0.02 89 1014.9
20260507122011 62 228 6.0 14.0 0.00 0.09 0.02 90 1014.8
20260507121511 62 278 5.0 11.0 0.00 0.09 0.02 91 1014.9
20260507121010 62 192 5.0 11.0 0.00 0.09 0.02 92 1014.9
20260507120508 61 256 8.0 11.0 0.00 0.09 0.02 93 1015.1
20260507120007 61 235 6.0 14.0 0.00 0.09 0.02 92 1015.0
20260507115508 61 198 5.0 11.0 0.00 0.09 0.02 93 1015.1
20260507115007 60 188 7.0 13.0 0.00 0.09 0.02 92 1015.3
20260507114506 61 177 8.0 12.0 0.00 0.09 0.02 94 1015.4
20260507114005 60 191 7.0 10.0 0.00 0.09 0.02 94 1015.3
20260507113504 60 211 7.0 12.0 0.00 0.09 0.02 95 1015.4
20260507113004 60 234 6.0 12.0 0.00 0.09 0.02 95 1015.5
20260507112503 60 199 9.0 14.0 0.00 0.09 0.02 95 1015.5
20260507112003 60 246 8.0 14.0 0.00 0.09 0.02 95 1015.5
20260507111507 59 215 8.0 15.0 0.00 0.09 0.02 95 1015.5
20260507111001 59 265 11.0 15.0 0.00 0.09 0.02 95 1015.4
20260507110502 60 234 6.0 12.0 0.00 0.09 0.02 96 1015.5
20260507110001 60 271 9.0 17.0 0.00 0.09 0.02 96 1015.4
20260507105501 60 248 10.0 17.0 0.00 0.09 0.02 96 1015.4
20260507105001 60 249 9.0 15.0 0.00 0.09 0.02 96 1015.3
20260507104502 60 249 8.0 15.0 0.00 0.09 0.02 96 1015.4
20260507104104 59 270 10.0 15.0 0.00 0.09 0.02 96 1015.4
20260507103600 59 242 10.0 15.0 0.00 0.09 0.02 96 1015.3
20260507103114 59 221 10.0 16.0 0.01 0.09 0.02 95 1015.3
20260507102559 59 252 10.0 16.0 0.01 0.09 0.02 96 1015.3
20260507102059 60 221 8.0 15.0 0.01 0.09 0.02 95 1015.1
20260507101602 60 282 10.0 16.0 0.01 0.09 0.02 95 1015.1
20260507101058 60 227 11.0 16.0 0.01 0.09 0.02 95 1015.0
20260507100557 60 247 7.0 11.0 0.01 0.09 0.02 94 1015.0
20260507100112 60 257 5.0 11.0 0.01 0.09 0.02 94 1014.9
20260507095601 60 246 6.0 13.0 0.01 0.09 0.02 94 1014.9
20260507095056 60 235 7.0 13.0 0.01 0.09 0.02 94 1014.8
20260507094557 60 240 7.0 10.0 0.01 0.09 0.02 94 1014.7
20260507094056 60 282 4.0 9.0 0.01 0.09 0.02 93 1014.8
20260507093555 60 233 4.0 10.0 0.01 0.09 0.02 93 1014.8
20260507093100 60 225 6.0 10.0 0.00 0.09 0.02 93 1014.8
20260507092555 60 259 4.0 8.0 0.00 0.09 0.02 93 1014.7
20260507092054 60 283 3.0 6.0 0.00 0.09 0.02 93 1014.7
20260507091557 60 265 4.0 7.0 0.00 0.09 0.02 93 1014.7
20260507091054 60 248 4.0 7.0 0.00 0.09 0.02 93 1014.6
20260507090553 60 275 3.0 5.0 0.00 0.09 0.02 92 1014.6
20260507090054 60 267 2.0 5.0 0.00 0.09 0.02 92 1014.6
20260507085555 60 242 3.0 5.0 0.00 0.09 0.02 92 1014.6
20260507085053 61 261 3.0 6.0 0.00 0.09 0.02 92 1014.6
20260507084557 61 234 2.0 4.0 0.00 0.09 0.02 92 1014.5
20260507084053 61 210 2.0 4.0 0.00 0.09 0.02 92 1014.5
20260507083552 60 213 1.0 5.0 0.00 0.09 0.02 91 1014.5
20260507083107 61 221 3.0 5.0 0.00 0.09 0.02 91 1014.5
20260507082553 61 234 2.0 4.0 0.00 0.09 0.02 90 1014.4
20260507082056 61 229 2.0 4.0 0.00 0.09 0.02 90 1014.3
20260507081559 61 206 0.0 0.0 0.00 0.09 0.02 90 1014.4
20260507081051 61 224 0.0 1.0 0.00 0.09 0.02 90 1014.4
20260507080549 61 263 0.0 4.0 0.00 0.09 0.02 89 1014.4
20260507080048 60 217 1.0 6.0 0.00 0.09 0.02 87 1014.4
20260507075649 60 185 3.0 8.0 0.00 0.09 0.02 85 1014.4
20260507075048 60 140 5.0 8.0 0.00 0.09 0.02 85 1014.4
20260507074549 59 148 4.0 10.0 0.00 0.09 0.02 86 1014.2
20260507074046 59 120 5.0 10.0 0.00 0.09 0.02 86 1014.1
20260507073546 59 113 5.0 10.0 0.00 0.09 0.02 86 1014.1
20260507073054 59 115 5.0 11.0 0.00 0.09 0.02 86 1014.1
20260507072545 59 124 8.0 11.0 0.00 0.09 0.02 85 1013.9
20260507072048 59 141 4.0 9.0 0.00 0.09 0.02 85 1014.0
20260507071544 59 153 6.0 9.0 0.00 0.09 0.02 85 1013.8
20260507071044 59 134 5.0 9.0 0.00 0.09 0.02 85 1013.8
20260507070543 59 126 5.0 10.0 0.00 0.09 0.02 85 1013.7
20260507070043 59 130 5.0 10.0 0.00 0.09 0.02 85 1013.6
20260507065540 59 110 4.0 11.0 0.00 0.10 0.02 85 1013.6
20260507065041 59 128 5.0 11.0 0.00 0.10 0.02 86 1013.6
20260507064541 59 156 5.0 9.0 0.00 0.10 0.02 86 1013.6
20260507064041 59 140 4.0 9.0 0.00 0.10 0.02 86 1013.6
20260507063536 59 144 6.0 11.0 0.01 0.10 0.02 86 1013.6
20260507063038 59 139 6.0 11.0 0.01 0.10 0.02 86 1013.5
20260507062535 59 105 3.0 12.0 0.01 0.10 0.02 86 1013.4
20260507062035 59 128 7.0 12.0 0.01 0.10 0.02 86 1013.3
20260507061536 59 121 7.0 15.0 0.01 0.10 0.02 86 1013.4
20260507061034 59 126 9.0 15.0 0.01 0.10 0.02 87 1013.3
20260507060534 59 115 10.0 16.0 0.01 0.10 0.02 87 1013.2
20260507060038 59 120 11.0 16.0 0.01 0.10 0.02 87 1013.2
20260507055532 59 134 8.0 14.0 0.01 0.12 0.02 87 1013.3
20260507055030 59 116 6.0 10.0 0.01 0.12 0.02 87 1013.3
20260507054538 59 83 4.0 10.0 0.01 0.12 0.02 88 1013.3
20260507054030 59 121 6.0 11.0 0.01 0.12 0.02 88 1013.3
20260507053531 59 88 2.0 11.0 0.00 0.11 0.01 89 1013.2
20260507053030 59 82 2.0 9.0 0.00 0.11 0.01 90 1013.1
20260507052530 58 50 4.0 9.0 0.00 0.11 0.01 91 1013.1
20260507052030 58 104 3.0 9.0 0.00 0.11 0.01 91 1013.0
20260507051530 58 87 3.0 9.0 0.00 0.11 0.01 91 1013.0
20260507051028 59 77 3.0 5.0 0.00 0.11 0.01 92 1013.0
20260507050530 59 77 2.0 5.0 0.00 0.11 0.01 91 1013.0
20260507050035 59 77 2.0 4.0 0.00 0.11 0.01 91 1013.0
20260507045529 59 77 2.0 4.0 0.00 0.11 0.01 90 1013.0
20260507045029 59 107 2.0 6.0 0.00 0.11 0.01 90 1012.8
20260507044536 59 17 1.0 6.0 0.00 0.11 0.01 89 1012.8
20260507044028 59 34 1.0 5.0 0.00 0.11 0.01 89 1012.8
20260507043527 59 97 0.0 7.0 0.00 0.11 0.01 88 1012.8
20260507043027 59 86 3.0 7.0 0.00 0.11 0.01 88 1012.9
20260507042527 59 67 4.0 8.0 0.00 0.11 0.01 89 1012.8
20260507042026 59 71 2.0 10.0 0.00 0.11 0.01 89 1012.8
20260507041531 59 134 6.0 12.0 0.00 0.11 0.01 90 1012.8
20260507041025 59 88 6.0 12.0 0.00 0.11 0.01 91 1012.8
20260507040524 58 101 4.0 10.0 0.00 0.11 0.01 91 1012.8
20260507040023 58 49 6.0 11.0 0.00 0.11 0.01 92 1012.8
20260507035523 58 29 3.0 14.0 0.00 0.11 0.01 92 1013.0
20260507035023 59 101 2.0 11.0 0.00 0.11 0.01 92 1013.0
20260507034523 59 43 0.0 3.0 0.00 0.11 0.01 92 1012.9
20260507034022 59 43 0.0 3.0 0.00 0.11 0.01 92 1012.9
20260507033522 59 43 0.0 4.0 0.00 0.11 0.01 91 1012.9
20260507033122 59 43 1.0 4.0 0.00 0.11 0.01 91 1012.9
20260507032523 59 60 1.0 5.0 0.00 0.11 0.01 90 1013.0
20260507032020 59 21 2.0 8.0 0.00 0.11 0.01 90 1013.0
20260507031526 59 88 4.0 10.0 0.00 0.11 0.01 90 1013.0
20260507031022 59 84 2.0 10.0 0.00 0.11 0.01 91 1013.1
20260507030520 59 37 4.0 10.0 0.00 0.11 0.01 91 1013.0
20260507030019 59 97 5.0 10.0 0.00 0.11 0.01 92 1013.0
20260507025520 59 65 3.0 10.0 0.00 0.11 0.01 92 1013.0
20260507025020 59 75 3.0 5.0 0.00 0.11 0.01 93 1013.1
20260507024518 59 75 1.0 5.0 0.00 0.11 0.01 92 1013.2
20260507024017 59 75 3.0 5.0 0.00 0.11 0.01 92 1013.3
20260507023525 59 82 1.0 3.0 0.00 0.11 0.01 92 1013.5
20260507023016 59 51 0.0 3.0 0.00 0.11 0.01 92 1013.5
20260507022516 59 51 1.0 3.0 0.00 0.11 0.01 92 1013.6
20260507022018 59 51 0.0 4.0 0.00 0.11 0.01 91 1013.5
20260507021515 59 51 2.0 5.0 0.00 0.11 0.01 91 1013.7
20260507021015 59 57 2.0 6.0 0.00 0.11 0.01 91 1013.8
20260507020513 59 73 3.0 6.0 0.00 0.11 0.01 91 1013.7
20260507020014 60 78 3.0 8.0 0.00 0.11 0.01 91 1013.9
20260507015511 60 76 4.0 8.0 0.00 0.11 0.01 91 1014.1
20260507015012 59 71 2.0 7.0 0.00 0.11 0.01 92 1014.1
20260507014516 60 108 3.0 7.0 0.00 0.11 0.01 92 1014.1
20260507014011 60 65 2.0 4.0 0.00 0.11 0.01 92 1014.3
20260507013509 60 65 2.0 4.0 0.00 0.11 0.01 92 1014.4
20260507013014 60 65 2.0 4.0 0.00 0.11 0.01 92 1014.3
20260507012509 60 65 3.0 4.0 0.00 0.11 0.01 92 1014.4
20260507012008 60 65 1.0 3.0 0.00 0.11 0.01 91 1014.4
20260507011516 60 65 0.0 6.0 0.00 0.11 0.01 91 1014.5
20260507011006 60 65 1.0 8.0 0.00 0.11 0.01 90 1014.5
20260507010507 60 66 5.0 9.0 0.00 0.11 0.01 90 1014.5
20260507010007 60 29 3.0 14.0 0.00 0.11 0.01 90 1014.5
20260507005506 60 122 7.0 14.0 0.00 0.11 0.01 91 1014.5
20260507005004 59 103 7.0 10.0 0.00 0.11 0.01 92 1014.6
20260507004603 59 42 4.0 14.0 0.00 0.11 0.01 92 1014.7
20260507004003 59 123 9.0 14.0 0.00 0.11 0.01 92 1014.9
20260507003503 59 113 5.0 13.0 0.00 0.11 0.01 93 1014.9
20260507003002 59 104 9.0 13.0 0.00 0.11 0.01 94 1015.0
20260507002501 59 124 5.0 13.0 0.00 0.11 0.01 94 1014.9
20260507002104 59 128 9.0 13.0 0.00 0.11 0.01 94 1015.0
20260507001602 59 103 6.0 13.0 0.00 0.11 0.01 95 1015.0
20260507001058 59 86 7.0 13.0 0.00 0.11 0.01 96 1014.9
20260507000557 59 117 8.0 12.0 0.00 0.11 0.01 96 1014.8
20260507000056 58 76 6.0 12.0 0.01 0.11 0.01 97 1014.8
20260506235554 58 117 6.0 10.0 0.01 0.11 0.01 97 1014.9
20260506235052 59 103 2.0 7.0 0.01 0.11 0.01 97 1015.0
20260506234559 59 101 1.0 3.0 0.02 0.11 0.01 97 1015.1
20260506234053 59 355 0.0 1.0 0.02 0.11 0.01 97 1015.1
20260506233554 59 355 0.0 3.0 0.02 0.11 0.01 97 1015.2
20260506233054 59 355 0.0 4.0 0.02 0.11 0.01 97 1015.2
20260506232549 59 355 1.0 4.0 0.02 0.11 0.01 97 1015.3
20260506232049 60 355 1.0 3.0 0.02 0.11 0.01 97 1015.2
20260506231556 59 355 0.0 1.0 0.02 0.11 0.01 97 1015.4
20260506231048 59 355 0.0 3.0 0.02 0.11 0.01 97 1015.4
20260506230547 59 355 1.0 4.0 0.02 0.11 0.01 97 1015.4
20260506230055 60 355 3.0 4.0 0.01 0.10 0.00 97 1015.5
20260506225547 60 344 2.0 4.0 0.01 0.10 0.10 97 1015.4
20260506225045 60 326 1.0 4.0 0.01 0.10 0.10 97 1015.5
20260506224545 60 340 2.0 3.0 0.00 0.09 0.09 97 1015.5
20260506224044 60 285 0.0 3.0 0.00 0.09 0.09 97 1015.4
20260506223544 60 285 0.0 0.0 0.00 0.09 0.09 97 1015.3
20260506223053 60 285 0.0 0.0 0.00 0.09 0.09 97 1015.4
20260506222543 60 285 0.0 0.0 0.00 0.09 0.09 97 1015.3
20260506222043 60 285 0.0 0.0 0.00 0.09 0.09 97 1015.2
20260506221542 60 285 0.0 0.0 0.00 0.09 0.09 97 1015.1
20260506221042 60 285 0.0 0.0 0.00 0.09 0.09 97 1015.0
20260506220542 60 285 0.0 0.0 0.00 0.09 0.09 97 1015.1
20260506220042 60 285 0.0 3.0 0.00 0.09 0.09 97 1015.0
20260506215542 60 285 0.0 3.0 0.00 0.09 0.09 97 1015.0
20260506215041 60 285 0.0 0.0 0.00 0.09 0.09 97 1015.0
20260506214541 60 285 0.0 0.0 0.00 0.09 0.09 97 1014.9
20260506214040 60 285 0.0 0.0 0.00 0.09 0.09 97 1014.9
20260506213543 60 285 0.0 2.0 0.00 0.09 0.09 97 1014.8
20260506213100 60 285 0.0 2.0 0.00 0.09 0.09 97 1014.7
20260506212541 60 285 1.0 2.0 0.00 0.09 0.09 97 1014.6
20260506212041 60 285 0.0 0.0 0.00 0.09 0.09 97 1014.5
20260506211552 60 285 0.0 0.0 0.00 0.09 0.09 97 1014.6
20260506211040 60 285 0.0 0.0 0.00 0.09 0.09 97 1014.4
20260506210540 60 285 0.0 0.0 0.00 0.09 0.09 97 1014.4
20260506210040 60 285 0.0 0.0 0.00 0.09 0.09 97 1014.4
20260506205539 60 285 0.0 0.0 0.00 0.09 0.09 97 1014.4
20260506205038 60 285 0.0 0.0 0.00 0.09 0.09 97 1014.5
20260506204546 60 285 0.0 1.0 0.00 0.09 0.09 97 1014.4
20260506204037 60 285 0.0 2.0 0.00 0.09 0.09 97 1014.3
20260506203538 60 285 0.0 2.0 0.00 0.09 0.09 97 1014.2
20260506203043 60 285 0.0 2.0 0.00 0.09 0.09 97 1014.2
20260506202537 60 285 1.0 2.0 0.00 0.09 0.09 97 1014.2
20260506202040 60 285 0.0 2.0 0.00 0.09 0.09 97 1014.2
20260506201552 60 285 0.0 3.0 0.00 0.09 0.09 97 1014.1
20260506201036 60 285 1.0 3.0 0.00 0.09 0.09 97 1014.1
20260506200536 60 285 1.0 3.0 0.00 0.09 0.09 97 1014.1
20260506200036 60 285 1.0 4.0 0.00 0.09 0.09 97 1014.1
20260506195536 60 285 2.0 4.0 0.00 0.09 0.09 97 1014.1
20260506195036 60 285 0.0 2.0 0.00 0.09 0.09 97 1014.1
20260506194549 60 285 0.0 2.0 0.00 0.09 0.09 97 1014.0
20260506194038 60 285 0.0 2.0 0.00 0.09 0.09 97 1014.0
20260506193535 60 285 1.0 2.0 0.00 0.09 0.09 97 1013.9
20260506193038 60 285 1.0 3.0 0.00 0.09 0.09 97 1013.8
20260506192534 60 285 1.0 4.0 0.00 0.09 0.09 97 1013.7
20260506192035 60 285 2.0 4.0 0.00 0.09 0.09 97 1013.7
20260506191543 60 285 2.0 3.0 0.00 0.09 0.09 97 1013.7